Погода в Октябрьском

Россия / Республика Бурятия     50°13′11″N   107°04′36″E
темп.,
°C
ветер,
м/с
пор.,
м/с
влажн.,
%
обл.,
%
осадки,
мм/ч
давл.,
гПа
погр.,
м
18 мая, вт
вт1823:00+9с357163 0.0 100895
02:00+7всв2474100 0.0 100871
05:00+7с3678100 0.0 1009174
08:00+7ссв3681100 1.5 1011650
11:00+9ссз246690 0.7 1011824
14:00+15ссз333987 0.7 10081846
17:00+16зсз223632 0.0 10061894
20:00+13зюз015129 0.0 100411
19 мая, ср
ср1923:00+9ююв336642 0.0 100336
02:00+7юв357191 0.0 100093
05:00+8юв4772100 0.0 996154
08:00+15зсз7135297 0.0 9961333
11:00+13ссз9125177 0.0 10031567
14:00+13с684767 0.0 10041631
17:00+14с444098 0.0 10031196
20:00+11ссз23515 0.0 100142
20 мая, чт
чт2023:00+8в226060 0.0 100114
02:00+7юв226570 0.0 99813
05:00+6юв227296 0.0 99813
08:00+11сз4556100 0.1 999410
11:00+16ссз224967 0.6 997742
14:00+21с653499 0.6 9961527
17:00+21ссв5634100 0.3 9941185
20:00+15ссв5859100 1.3 992186
21 мая, пт
пт2123:00+11всв6984100 1.3 993184
02:00+9сз229297 1.4 99438
05:00+8ссз129326 0.0 99530
08:00+11ссз447845 0.0 996515
11:00+17ссз225715 0.0 994857
14:00+21ссз324599 0.0 9921416
17:00+19с8849100 0.0 990869
20:00+9ссз111570100 0.5 996879
22 мая, сб
сб2223:00+5ссз81474100 0.1 1002891
02:00+4ссз61174100 0.1 1005966
05:00+3зсз3696100 0.4 1005456
08:00+3з41096100 2.1 1007534
11:00+4з71094100 2.8 1007742
14:00+7ссз91561100 5.2 10081999
17:00+9ссз8124997 0.3 10082156
20:00+7ссз6106624 0.8 1010639